Regional Weather Roundup
Issued by NWS

Home | Current Version | Previous Version | Graphics & Text | Print | Product List | Glossary On
Versions: 1 2 3 4 5 6 7 8 9 10 11 12 13 14 15 16 17 18 19 20 21 22 23 24 25 26 27 28 29 30 31 32 33 34 35 36 37 38 39 40 41 42 43 44 45 46 47 48 49 50
000
ASUS43 KOAX 191002
RWRNE

WEATHER ROUNDUP FOR NEBRASKA
NATIONAL WEATHER SERVICE OMAHA NE
500 AM CDT TUE SEP 19 2017

NOTES: SATELLITE DATA IS BEING USED TO AUGMENT CLOUD COVER ABOVE
       12000 FEET.
       "FAIR" INDICATES FEW OR NO CLOUDS BELOW 12,000 FEET WITH NO
       SIGNIFICANT WEATHER AND/OR OBSTRUCTIONS TO VISIBILITY.


NEZ001>004-019>022-054>056-191100-
NEBRASKA PANHANDLE

CITY           SKY/WX    TMP DP  RH WIND       PRES   REMARKS
SCOTTSBLUFF    CLOUDY    57  48  72 E9        29.70F
ALLIANCE       CLEAR     53  50  89 S9        29.70F
CHADRON        CLOUDY    67  47  48 S29G37    29.61F
GORDON         FAIR      62  55  76 S10       29.69F
KIMBALL        CLEAR     55  46  72 S6        29.74F
SIDNEY         CLOUDY    50  45  83 W3        29.74F
$$

NEZ057>060-069>072-079>082-191100-
SOUTHWEST NEBRASKA

CITY           SKY/WX    TMP DP  RH WIND       PRES   REMARKS
NORTH PLATTE   CLEAR     58  57  97 E10       29.73F
IMPERIAL       CLOUDY    60  55  83 SE9       29.71F
LEXINGTON      CLEAR     61  59  91 SE6       29.76F
MCCOOK         CLEAR     64  60  87 VRB3      29.73F
OGALLALA       PTCLDY    65  57  75 S12       29.71F
$$

NEZ005>010-023>029-035>040-094-191100-
NORTH CENTRAL NEBRASKA

CITY           SKY/WX    TMP DP  RH WIND       PRES   REMARKS
VALENTINE      PTCLDY    64  59  83 S13       29.70F
AINSWORTH      CLOUDY    60  60  99 S10       29.72F
BROKEN BOW     FOG       54  53  97 CALM      29.75F VSB 1/2
O`NEILL        CLEAR     61  61 100 SE8       29.76F FOG
ORD            FOG       60  59  96 SE5       29.75F VSB 1/4
THEDFORD       CLOUDY    64  59  83 S10       29.74F
$$

NEZ041-046>049-061>064-073>077-083>087-191100-
SOUTH CENTRAL NEBRASKA

CITY           SKY/WX    TMP DP  RH WIND       PRES   REMARKS
GRAND ISLAND   CLEAR     64  64 100 S9        29.78F
AURORA         CLEAR     62  62 100 S6        29.79S
HASTINGS       CLEAR     64  62  93 S8        29.79F
HEBRON         CLEAR     67  64  91 S6        29.80S
HOLDREGE       CLEAR     63  60  91 S7        29.77S
KEARNEY        CLEAR     61  60  97 S8        29.77F
YORK           CLEAR     64  64 100 S7        29.80S
$$

NEZ011>018-030>034-042>045-191100-
NORTHEAST NEBRASKA

CITY           SKY/WX    TMP DP  RH WIND       PRES   REMARKS
NORFOLK        CLOUDY    63  63 100 SE8       29.78F FOG
ALBION         FOG       63  63  99 SE6       29.78F VSB 1/4
BLAIR          CLOUDY    67  66  97 SE9       29.82F FOG
COLUMBUS       CLEAR     65  63  93 SE8       29.80S
FREMONT        CLOUDY    67  66  99 SE9       29.81F FOG
TEKAMAH        CLOUDY    67  65  93 SE10      29.81F FOG
WAYNE          CLOUDY    66  64  91 S9        29.80S FOG
$$

NEZ050>053-065>068-078-088>093-191100-
SOUTHEAST NEBRASKA

CITY           SKY/WX    TMP DP  RH WIND       PRES   REMARKS
LINCOLN        CLEAR     66  64  93 S8        29.81F
OMAHA EPPLEY   CLOUDY    68  64  87 SE13      29.83F
BEATRICE       CLEAR     67  65  94 SE8       29.81F
FALLS CITY     CLEAR     66  65  96 SE5       29.84F FOG
NEBRASKA CITY  CLOUDY    67  67 100 SE7       29.84F FOG
PLATTSMOUTH    CLOUDY    67  67 100 SE14      29.83F FOG
$$

NEZ044-045-051>053-067-191100-
OMAHA AREA

CITY           SKY/WX    TMP DP  RH WIND       PRES   REMARKS
OMAHA EPPLEY   CLOUDY    68  64  87 SE13      29.83F
BLAIR          CLOUDY    67  66  97 SE9       29.82F FOG
FREMONT        CLOUDY    67  66  99 SE9       29.81F FOG
MILLARD        CLOUDY    68  67  96 SE10      29.83S FOG
OFFUTT AFB     CLOUDY    67  65  95 SE9       29.82F
PLATTSMOUTH    CLOUDY    67  67 100 SE14      29.83F FOG
WAHOO          CLOUDY    67  66  99 SE9       29.81F FOG
$$



USA.gov is the U.S. government's official web portal to all federal, state and local government web resources and services.